Regional Weather Roundup
Issued by NWS Cleveland, OH

Home | Current Version | Previous Version | Text Only | Print | Product List | Glossary On
Versions: 1 2 3 4 5 6 7 8 9 10 11 12 13 14 15 16 17 18 19 20 21 22 23 24 25 26 27 28 29 30 31 32 33 34 35 36 37 38 39 40 41 42 43 44 45 46 47 48 49 50
000
ASUS41 KCLE 312010
RWRCLE
OHIO REGIONAL WEATHER ROUNDUP
NATIONAL WEATHER SERVICE WILMINGTON, OH
400 PM EDT THU JUL 31 2014

NOTE: "FAIR" INDICATES FEW OR NO CLOUDS BELOW 12,000 FEET WITH NO
SIGNIFICANT WEATHER AND/OR OBSTRUCTIONS TO VISIBILITY.

OHZ001>008-015>018-024>027-034-035-043-044-312100-
   NORTHWEST OHIO

CITY           SKY/WX    TMP DP  RH WIND       PRES   REMARKS
DEFIANCE       SUNNY     82  57  42 SW10      30.04F
FINDLAY        MOSUNNY   81  57  43 SW9       30.05S
TOLEDO EXPRESS MOSUNNY   81  54  39 W12G20    30.03F
TOLEDO METCALF MOSUNNY   81  53  37 SW10      30.04F
LIMA           MOSUNNY   80  59  48 SW13      30.07F
$$

OHZ009>014-019>023-028>033-038-089-312100-
   NORTHEAST OHIO

CITY           SKY/WX    TMP DP  RH WIND       PRES   REMARKS
CLE-HOPKINS    MOSUNNY   76  52  43 SW9       30.09S
CLE-LAKEFRONT  SUNNY     74  53  48 NW5       30.06S
CUY CO. ARPT   SUNNY     77  50  38 NW7       30.09S
LORAIN-ELYRIA  SUNNY     79  53  40 W8        30.08S
ASHTABULA      SUNNY     74  52  46 W10       30.09S
AKRON-CANTON   MOSUNNY   78  55  44 W9        30.09S
WOOSTER        MOSUNNY   76  56  49 W8        30.09F
MANSFIELD      PTSUNNY   76  55  48 SW10      30.10S
YOUNGSTOWN     MOSUNNY   76  53  44 W8        30.09S
$$

OHZ042-051>053-060>062-070>072-077>081-312100-
  SOUTHWEST OHIO

CITY           SKY/WX    TMP DP  RH WIND       PRES   REMARKS
CINC-COVINGTON PTSUNNY   79  57  46 W7        30.09F
CINC-LUNKEN    MOSUNNY   83  59  44 VRB5      30.07F
HAMILTON       MOSUNNY   82  60  47 W5        30.09F
DAYTON         MOSUNNY   82  58  43 SW9G18    30.09F
WRIGHT-PAT AFB MOSUNNY   81  60  47 SW8       30.08F
DAYTON GENERAL MOSUNNY   79  58  48 NW8       30.08F
WILMINGTON     MOSUNNY   80  58  46 W6        30.09F
$$

OHZ036-037-039>041-045>050-054>059-063>069-073>076-082>088-312100-
  CENTRAL AND SOUTHEAST OHIO

CITY           SKY/WX    TMP DP  RH WIND       PRES   REMARKS
COLUMBUS       MOSUNNY   83  57  41 W8        30.08S
OSU AIRPORT    MOSUNNY   79  58  48 NW6       30.08F
BOLTON FIELD   MOSUNNY   77  63  61 SW7       30.09F
RICKENBACK AFB SUNNY     82  53  36 W6        30.08S
NEWARK         MOSUNNY   80  59  48 SW10      30.08F
MARION         MOSUNNY   78  55  44 SW8       30.08F
LANCASTER      SUNNY     79  62  56 VRB7      30.09F
ZANESVILLE     MOSUNNY   79  58  48 SW7       30.09F
NEW PHILLY     SUNNY     78  60  53 W9        30.09F
$$



USA.gov is the U.S. government's official web portal to all federal, state and local government web resources and services.